DB0RV-13 Weather Reports


Display with metric or nautical units.
time (UTC)temp
F
wind
direction
speed
MPH
gust
MPH
rain 1hr
in
rain 24hr
in
rain mn
in
humidity
%
barometer
mb
20260504185001 64 78 2.0 0.0 0.00 0.00 0.00 42 1011.2
20260504184501 64 0 0.0 0.0 0.00 0.00 0.00 43 1011.2
20260504184002 64 90 1.0 0.0 0.00 0.00 0.00 42 1011.3
20260504183502 64 0 0.0 0.0 0.00 0.00 0.00 42 1011.4
20260504183002 64 258 1.0 0.0 0.00 0.00 0.00 41 1011.4
20260504182501 64 0 0.0 0.0 0.00 0.00 0.00 42 1011.4
20260504182002 64 299 1.0 0.0 0.00 0.00 0.00 41 1011.4
20260504181501 65 315 3.0 0.0 0.00 0.00 0.00 41 1011.4
20260504181002 64 256 4.0 0.0 0.00 0.00 0.00 42 1011.5
20260504180501 65 263 2.0 0.0 0.00 0.00 0.00 40 1011.3
20260504180003 65 264 2.0 0.0 0.00 0.00 0.00 40 1011.3
20260504175503 65 269 4.0 0.0 0.00 0.00 0.00 39 1011.2
20260504175001 65 270 5.0 0.0 0.00 0.00 0.00 39 1011.4
20260504174502 65 258 2.0 0.0 0.00 0.00 0.00 40 1011.4
20260504174001 66 272 0.0 0.0 0.00 0.00 0.00 40 1011.3
20260504173502 66 288 5.0 0.0 0.00 0.00 0.00 40 1011.2
20260504173002 66 292 6.0 0.0 0.00 0.00 0.00 40 1011.2
20260504172502 67 285 4.0 0.0 0.00 0.00 0.00 41 1011.2
20260504172001 66 260 4.0 0.0 0.00 0.00 0.00 42 1011.2
20260504171502 66 243 6.0 0.0 0.00 0.00 0.00 45 1011.3
20260504171003 67 227 3.0 0.0 0.00 0.00 0.00 44 1011.1
20260504170501 67 334 4.0 0.0 0.00 0.00 0.00 43 1011.1
20260504151002 70 269 3.0 0.0 0.00 0.00 0.00 32 1011.0
20260504150501 70 241 2.0 0.0 0.00 0.00 0.00 35 1010.8
20260504141002 70 246 2.0 0.0 0.00 0.00 0.00 35 1011.1
20260504140501 69 245 3.0 0.0 0.00 0.00 0.00 33 1011.1
20260504130502 70 20 7.0 0.0 0.00 0.00 0.00 36 1011.4
20260504110503 68 20 6.0 0.0 0.00 0.00 0.00 41 1012.6
20260504100501 66 65 5.0 0.0 0.00 0.00 0.00 44 1012.9
20260504082002 63 40 6.0 0.0 0.00 0.00 0.00 49 1013.8
20260504081502 63 45 5.0 0.0 0.00 0.00 0.00 51 1013.8
20260504081001 62 22 5.0 0.0 0.00 0.00 0.00 53 1013.9
20260504080502 61 38 5.0 0.0 0.00 0.00 0.00 53 1013.9
20260504050502 50 26 3.0 0.0 0.00 0.00 0.00 73 1014.1
20260504050001 50 1 2.0 0.0 0.00 0.00 0.00 74 1014.0
20260504045501 49 19 4.0 0.0 0.00 0.00 0.00 73 1014.1
20260504045001 49 43 3.0 0.0 0.00 0.00 0.00 73 1014.0
20260504044502 50 42 3.0 0.0 0.00 0.00 0.00 73 1014.1
20260504044002 49 29 2.0 0.0 0.00 0.00 0.00 75 1014.2
20260504043502 49 11 1.0 0.0 0.00 0.00 0.00 75 1014.2
20260504043002 49 30 3.0 0.0 0.00 0.00 0.00 76 1014.1
20260504042501 48 44 3.0 0.0 0.00 0.00 0.00 78 1014.1
20260504042002 48 31 3.0 0.0 0.00 0.00 0.00 79 1014.1
20260504041501 48 10 2.0 0.0 0.00 0.00 0.00 78 1014.0
20260504041002 47 61 2.0 0.0 0.00 0.00 0.00 78 1014.0
20260504040501 48 113 2.0 0.0 0.00 0.00 0.00 78 1014.0
20260504040002 48 93 2.0 0.0 0.00 0.00 0.00 78 1013.9
20260504035501 48 89 2.0 0.0 0.00 0.00 0.00 77 1014.0
20260504035001 48 93 2.0 0.0 0.00 0.00 0.00 77 1014.2
20260504034502 48 63 2.0 0.0 0.00 0.00 0.00 76 1014.2
20260504034001 49 46 2.0 0.0 0.00 0.00 0.00 74 1014.1
20260504033502 49 346 2.0 0.0 0.00 0.00 0.00 74 1014.2
20260504033001 49 345 3.0 0.0 0.00 0.00 0.00 73 1014.3
20260504032502 50 337 1.0 0.0 0.00 0.00 0.00 70 1014.5
20260504031501 51 130 1.0 0.0 0.00 0.00 0.00 69 1014.3
20260504031002 52 132 1.0 0.0 0.00 0.00 0.00 66 1014.4
20260504030501 53 0 0.0 0.0 0.00 0.00 0.00 65 1014.4
20260504030001 52 0 0.0 0.0 0.00 0.00 0.00 66 1014.4
20260504025502 53 85 0.0 0.0 0.00 0.00 0.00 64 1014.5
20260504025001 54 0 0.0 0.0 0.00 0.00 0.00 62 1014.5
20260504024502 54 273 2.0 0.0 0.00 0.00 0.00 63 1014.4
20260504024002 54 293 1.0 0.0 0.00 0.00 0.00 63 1014.5
20260504023501 52 308 1.0 0.0 0.00 0.00 0.00 66 1014.5
20260504023002 52 307 2.0 0.0 0.00 0.00 0.00 68 1014.5
20260504022502 52 307 3.0 0.0 0.00 0.00 0.00 68 1014.5
20260504022001 52 317 2.0 0.0 0.00 0.00 0.00 68 1014.3
20260504021501 51 315 3.0 0.0 0.00 0.00 0.00 69 1014.3
20260504021002 51 316 4.0 0.0 0.00 0.00 0.00 69 1014.3
20260504020504 51 321 3.0 0.0 0.00 0.00 0.00 69 1014.3
20260504020001 51 314 2.0 0.0 0.00 0.00 0.00 68 1014.2
20260504015502 51 307 2.0 0.0 0.00 0.00 0.00 69 1014.2
20260504015001 52 342 1.0 0.0 0.00 0.00 0.00 68 1014.3
20260504014501 52 325 2.0 0.0 0.00 0.00 0.00 68 1014.3
20260504014002 52 9 1.0 0.0 0.00 0.00 0.00 67 1014.3
20260504013501 52 44 1.0 0.0 0.00 0.00 0.00 68 1014.2
20260504013003 52 20 2.0 0.0 0.00 0.00 0.00 67 1014.2
20260504012502 52 42 2.0 0.0 0.00 0.00 0.00 68 1014.3
20260504012001 52 59 2.0 0.0 0.00 0.00 0.00 67 1014.1
20260504011501 52 88 3.0 0.0 0.00 0.00 0.00 67 1014.2
20260504011002 53 24 2.0 0.0 0.00 0.00 0.00 66 1014.3
20260504010501 52 348 2.0 0.0 0.00 0.00 0.00 66 1014.4
20260504010002 53 346 3.0 0.0 0.00 0.00 0.00 64 1014.4
20260504005502 54 29 3.0 0.0 0.00 0.00 0.00 62 1014.3
20260504005001 54 59 1.0 0.0 0.00 0.00 0.00 61 1014.5
20260504004501 54 34 1.0 0.0 0.00 0.00 0.00 61 1014.5
20260504004002 54 54 1.0 0.0 0.00 0.00 0.00 61 1014.4
20260504003501 55 0 0.0 0.0 0.00 0.00 0.00 61 1014.6
20260504003001 55 41 1.0 0.0 0.00 0.00 0.00 60 1014.6
20260504002502 55 0 0.0 0.0 0.00 0.00 0.00 61 1014.6
20260504002001 55 224 1.0 0.0 0.00 0.00 0.00 61 1014.8
20260504001502 54 222 1.0 0.0 0.00 0.00 0.00 62 1014.7
20260504001002 52 315 2.0 0.0 0.00 0.00 0.00 65 1014.8
20260504000501 52 313 2.0 0.0 0.00 0.00 0.00 65 1014.8
20260504000001 53 316 3.0 0.0 0.00 0.00 0.00 64 1014.8
20260503235502 55 269 1.0 0.0 0.00 0.00 0.00 61 1014.9
20260503235001 55 195 0.0 0.0 0.00 0.00 0.00 60 1014.8
20260503234502 55 193 2.0 0.0 0.00 0.00 0.00 60 1014.8
20260503234002 55 233 1.0 0.0 0.00 0.00 0.00 60 1014.9
20260503233501 55 300 1.0 0.0 0.00 0.00 0.00 61 1015.0
20260503233002 54 257 2.0 0.0 0.00 0.00 0.00 61 1015.1
20260503232502 54 215 2.0 0.0 0.00 0.00 0.00 60 1015.1
20260503232001 55 203 3.0 0.0 0.00 0.00 0.00 59 1015.0
20260503231501 55 0 0.0 0.0 0.00 0.00 0.00 60 1015.1
20260503231002 55 212 1.0 0.0 0.00 0.00 0.00 59 1015.1
20260503230501 55 146 0.0 0.0 0.00 0.00 0.00 60 1015.1
20260503230001 55 184 0.0 0.0 0.00 0.00 0.00 60 1015.1
20260503225502 55 192 2.0 0.0 0.00 0.00 0.00 59 1015.1
20260503225001 55 0 0.0 0.0 0.00 0.00 0.00 60 1015.2
20260503224501 55 128 1.0 0.0 0.00 0.00 0.00 58 1015.1
20260503224002 55 149 2.0 0.0 0.00 0.00 0.00 59 1015.1
20260503223501 56 295 2.0 0.0 0.00 0.00 0.00 57 1015.2
20260503223001 56 277 3.0 0.0 0.00 0.00 0.00 58 1015.1
20260503222502 57 297 1.0 0.0 0.00 0.00 0.00 55 1015.1
20260503222001 56 240 1.0 0.0 0.00 0.00 0.00 56 1015.0
20260503221501 56 249 3.0 0.0 0.00 0.00 0.00 57 1015.0
20260503221002 56 245 4.0 0.0 0.00 0.00 0.00 56 1015.0
20260503220501 57 244 2.0 0.0 0.00 0.00 0.00 54 1015.0
20260503220001 58 239 1.0 0.0 0.00 0.00 0.00 53 1015.0
20260503215501 58 272 2.0 0.0 0.00 0.00 0.00 51 1014.9
20260503215001 58 270 3.0 0.0 0.00 0.00 0.00 52 1014.9
20260503214501 59 282 3.0 0.0 0.00 0.00 0.00 50 1014.8
20260503214002 58 261 1.0 0.0 0.00 0.00 0.00 51 1014.8
20260503213501 58 280 2.0 0.0 0.00 0.00 0.00 51 1014.8
20260503213001 58 249 5.0 0.0 0.00 0.00 0.00 51 1014.6
20260503212502 58 255 2.0 0.0 0.00 0.00 0.00 52 1014.7
20260503212001 58 238 2.0 0.0 0.00 0.00 0.00 53 1014.6
20260503211501 57 244 3.0 0.0 0.00 0.00 0.00 53 1014.6
20260503211002 57 261 3.0 0.0 0.00 0.00 0.00 53 1014.5
20260503210501 58 247 4.0 0.0 0.00 0.00 0.00 53 1014.5
20260503210001 58 270 2.0 0.0 0.00 0.00 0.00 52 1014.5
20260503205502 60 268 1.0 0.0 0.00 0.00 0.00 47 1014.4
20260503205003 59 275 2.0 0.0 0.00 0.00 0.00 48 1014.3
20260503204501 58 243 2.0 0.0 0.00 0.00 0.00 52 1014.4
20260503204002 57 239 4.0 0.0 0.00 0.00 0.00 53 1014.3
20260503203501 57 247 2.0 0.0 0.00 0.00 0.00 55 1014.2
20260503203002 57 241 5.0 0.0 0.00 0.00 0.00 55 1014.3
20260503202502 58 244 4.0 0.0 0.00 0.00 0.00 54 1014.2
20260503202002 58 250 4.0 0.0 0.00 0.00 0.00 52 1014.1
20260503201502 57 256 4.0 0.0 0.00 0.00 0.00 54 1014.1
20260503201002 58 233 5.0 0.0 0.00 0.00 0.00 53 1014.1
20260503200503 58 242 5.0 0.0 0.00 0.00 0.00 53 1014.1
20260503200002 58 243 3.0 0.0 0.00 0.00 0.00 54 1014.0
20260503195502 59 239 1.0 0.0 0.00 0.00 0.00 52 1014.0
20260503195002 59 216 4.0 0.0 0.00 0.00 0.00 50 1013.9
20260503194501 60 218 1.0 0.0 0.00 0.00 0.00 46 1013.8
20260503194002 61 188 4.0 0.0 0.00 0.00 0.00 43 1013.7
20260503193502 61 198 6.0 0.0 0.00 0.00 0.00 44 1013.6
20260503193004 62 185 4.0 0.0 0.00 0.00 0.00 42 1013.4
20260503192504 62 307 6.0 0.0 0.00 0.00 0.00 41 1013.2
20260503192002 63 337 5.0 0.0 0.00 0.00 0.00 40 1013.0
20260503191502 63 340 10.0 0.0 0.00 0.00 0.00 40 1012.7
20260503191002 63 323 13.0 0.0 0.00 0.00 0.00 39 1012.6
20260503190502 64 332 8.0 0.0 0.00 0.00 0.00 40 1012.9
20260503190003 64 320 6.0 0.0 0.00 0.00 0.00 41 1012.8
20260503185502 64 331 6.0 0.0 0.00 0.00 0.00 43 1012.9